�������l�o���
Date,Time,MP-1(��Sv/h),MP-2(��Sv/h),MP-3(��Sv/h),MP-4(��Sv/h),MP-5(��Sv/h),MP-6(��Sv/h),MP-7(��Sv/h),MP-8(��Sv/h),����,����(m/s),���J
2023/11/24,00:00,0.520,0.789,0.490,0.986,0.708,0.317,0.566,0.529,��,3.6,��
2023/11/24,00:10,0.521,0.790,0.492,0.988,0.709,0.316,0.566,0.528,��쐼,2.9,��
2023/11/24,00:20,0.520,0.788,0.490,0.986,0.707,0.318,0.568,0.527,��,3.6,��
2023/11/24,00:30,0.520,0.789,0.491,0.989,0.709,0.318,0.567,0.528,��쐼,2.6,��
2023/11/24,00:40,0.521,0.789,0.492,0.987,0.709,0.317,0.566,0.528,��쐼,2.6,��
2023/11/24,00:50,0.520,0.786,0.490,0.986,0.707,0.319,0.567,0.528,�쐼,2.6,��
2023/11/24,01:00,0.520,0.787,0.490,0.989,0.709,0.318,0.568,0.528,��,2.5,��
2023/11/24,01:10,0.519,0.789,0.492,0.988,0.710,0.317,0.569,0.528,��,3.8,��
2023/11/24,01:20,0.518,0.789,0.491,0.987,0.709,0.318,0.566,0.527,��,4.5,��
2023/11/24,01:30,0.521,0.788,0.491,0.987,0.708,0.317,0.566,0.528,��,4.3,��
2023/11/24,01:40,0.521,0.788,0.490,0.988,0.709,0.318,0.568,0.528,��쐼,2.9,��
2023/11/24,01:50,0.520,0.787,0.491,0.988,0.707,0.318,0.567,0.529,��쐼,2.2,��
2023/11/24,02:00,0.519,0.789,0.491,0.986,0.708,0.319,0.567,0.528,��,2.6,��
2023/11/24,02:10,0.521,0.789,0.490,0.988,0.708,0.318,0.568,0.528,��쐼,2.0,��
2023/11/24,02:20,0.519,0.789,0.490,0.984,0.707,0.319,0.565,0.528,��,2.3,��
2023/11/24,02:30,0.521,0.789,0.491,0.987,0.709,0.316,0.568,0.529,��쓌,2.3,��
2023/11/24,02:40,0.522,0.789,0.491,0.988,0.708,0.319,0.568,0.529,��쓌,3.0,��
2023/11/24,02:50,0.519,0.788,0.491,0.986,0.709,0.319,0.568,0.529,��쐼,2.6,��
2023/11/24,03:00,0.522,0.791,0.490,0.987,0.709,0.319,0.567,0.528,�쐼,3.3,��
2023/11/24,03:10,0.522,0.788,0.490,0.988,0.709,0.318,0.565,0.528,�쐼,2.9,��
2023/11/24,03:20,0.519,0.788,0.492,0.986,0.708,0.318,0.566,0.529,��쐼,3.0,��
2023/11/24,03:30,0.521,0.789,0.490,0.987,0.707,0.318,0.566,0.528,��쐼,2.5,��
2023/11/24,03:40,0.521,0.789,0.490,0.987,0.708,0.318,0.566,0.529,��,2.3,��
2023/11/24,03:50,0.521,0.789,0.492,0.986,0.709,0.319,0.567,0.526,��,2.9,��
2023/11/24,04:00,0.521,0.790,0.490,0.984,0.709,0.318,0.567,0.529,��쐼,3.2,��
2023/11/24,04:10,0.521,0.791,0.491,0.988,0.707,0.318,0.568,0.527,��쐼,2.8,��
2023/11/24,04:20,0.521,0.789,0.490,0.989,0.708,0.318,0.567,0.528,���쐼,2.6,��
2023/11/24,04:30,0.521,0.789,0.492,0.987,0.709,0.318,0.567,0.528,���쐼,1.4,��
2023/11/24,04:40,0.519,0.790,0.490,0.987,0.708,0.318,0.566,0.530,�쐼,2.0,��
2023/11/24,04:50,0.521,0.790,0.491,0.988,0.706,0.318,0.568,0.530,��,2.5,��
2023/11/24,05:00,0.520,0.790,0.491,0.987,0.708,0.318,0.567,0.529,��,2.6,��
2023/11/24,05:10,0.520,0.789,0.493,0.986,0.708,0.317,0.567,0.528,�쐼,2.6,��
2023/11/24,05:20,0.520,0.790,0.490,0.988,0.707,0.317,0.568,0.528,�쐼,2.0,��
2023/11/24,05:30,0.521,0.789,0.492,0.987,0.710,0.317,0.569,0.529,�쐼,1.7,��
2023/11/24,05:40,0.520,0.789,0.492,0.987,0.708,0.319,0.568,0.530,���쐼,1.5,��
2023/11/24,05:50,0.521,0.788,0.492,0.988,0.708,0.318,0.567,0.528,���쐼,3.1,��
2023/11/24,06:00,0.520,0.792,0.489,0.989,0.708,0.318,0.568,0.527,���쐼,1.5,��
2023/11/24,06:10,0.520,0.789,0.491,0.988,0.708,0.318,0.567,0.529,���k��,2.9,��
2023/11/24,06:20,0.523,0.790,0.492,0.989,0.708,0.318,0.567,0.528,���k��,2.0,��
2023/11/24,06:30,0.520,0.789,0.490,0.989,0.710,0.317,0.567,0.529,�k,2.9,��
2023/11/24,06:40,0.520,0.789,0.491,0.989,0.708,0.318,0.568,0.528,�k�k��,4.4,��
2023/11/24,06:50,0.521,0.789,0.491,0.989,0.707,0.319,0.566,0.529,�k��,2.6,��
2023/11/24,07:00,0.521,0.788,0.491,0.989,0.709,0.317,0.567,0.527,��,0.9,��
2023/11/24,07:10,0.521,0.790,0.491,0.988,0.708,0.317,0.567,0.529,�k,1.9,��
2023/11/24,07:20,0.519,0.789,0.492,0.989,0.708,0.318,0.568,0.528,�k,4.4,��
2023/11/24,07:30,0.521,0.790,0.490,0.988,0.707,0.318,0.569,0.528,�k�k��,3.2,��
2023/11/24,07:40,0.521,0.790,0.492,0.988,0.709,0.317,0.569,0.529,�k�k��,4.2,��
2023/11/24,07:50,0.522,0.789,0.490,0.989,0.708,0.318,0.567,0.528,�k,4.4,��
2023/11/24,08:00,0.522,0.789,0.491,0.988,0.709,0.319,0.570,0.529,�k,2.8,��
2023/11/24,08:10,0.521,0.790,0.492,0.988,0.710,0.318,0.568,0.529,�k��,1.2,��
2023/11/24,08:20,0.520,0.789,0.491,0.989,0.708,0.318,0.569,0.529,�k��,2.0,��
2023/11/24,08:30,0.521,0.789,0.491,0.989,0.708,0.315,0.569,0.528,�쓌,1.2,��
2023/11/24,08:40,0.521,0.790,0.492,0.990,0.708,0.316,0.568,0.529,�k�k��,0.6,��
2023/11/24,08:50,0.520,0.788,0.491,0.987,0.707,0.316,0.568,0.530,��,4.6,��
2023/11/24,09:00,0.521,0.788,0.493,0.989,0.708,0.316,0.568,0.530,���쐼,3.8,��
2023/11/24,09:10,0.521,0.789,0.494,0.989,0.710,0.316,0.568,0.529,���k��,8.5,��
2023/11/24,09:20,0.520,0.789,0.493,0.988,0.709,0.317,0.568,0.530,��,5.4,��
2023/11/24,09:30,0.519,0.789,0.492,0.988,0.709,0.318,0.568,0.529,��,5.3,��
2023/11/24,09:40,0.519,0.788,0.492,0.988,0.710,0.319,0.568,0.531,���k��,8.4,�L
2023/11/24,09:50,0.519,0.786,0.492,0.991,0.709,0.319,0.568,0.530,���k��,10.5,��
2023/11/24,10:00,0.519,0.789,0.492,0.990,0.709,0.318,0.568,0.531,���k��,10.6,��
2023/11/24,10:10,0.520,0.787,0.493,0.993,0.707,0.317,0.570,0.530,���k��,10.5,��
2023/11/24,10:20,0.522,0.788,0.493,0.991,0.708,0.315,0.567,0.528,���k��,9.3,��
2023/11/24,10:30,0.521,0.789,0.493,0.991,0.707,0.316,0.568,0.530,���k��,7.3,��
2023/11/24,10:40,0.520,0.787,0.491,0.991,0.708,0.318,0.568,0.530,���k��,9.9,��
2023/11/24,10:50,0.521,0.790,0.492,0.990,0.709,0.316,0.568,0.531,��,8.8,��
2023/11/24,11:00,0.522,0.789,0.492,0.992,0.706,0.317,0.567,0.530,���k��,9.1,��
2023/11/24,11:10,0.521,0.789,0.490,0.992,0.706,0.316,0.567,0.528,��,10.5,��
2023/11/24,11:20,0.520,0.790,0.488,0.992,0.709,0.317,0.568,0.530,��,11.3,��
2023/11/24,11:30,0.520,0.787,0.491,0.992,0.708,0.319,0.569,0.531,��,12.7,��
2023/11/24,11:40,0.522,0.791,0.491,0.993,0.710,0.317,0.569,0.531,��,8.6,��
2023/11/24,11:50,0.522,0.792,0.492,0.990,0.710,0.316,0.570,0.530,��,10.6,��
2023/11/24,12:00,0.521,0.789,0.492,0.991,0.710,0.316,0.568,0.532,���k��,11.6,��
2023/11/24,12:10,0.522,0.791,0.491,0.992,0.710,0.318,0.567,0.530,��,11.6,��
2023/11/24,12:20,0.523,0.793,0.491,0.993,0.710,0.319,0.568,0.529,��,10.3,��
2023/11/24,12:30,0.522,0.791,0.491,0.993,0.709,0.318,0.568,0.531,��,11.3,��
2023/11/24,12:40,0.522,0.790,0.493,0.995,0.710,0.318,0.568,0.531,��,8.8,��
2023/11/24,12:50,0.522,0.789,0.492,0.995,0.712,0.319,0.568,0.532,��,9.9,��
2023/11/24,13:00,0.522,0.790,0.494,0.991,0.710,0.318,0.568,0.531,��,7.7,��
2023/11/24,13:10,0.523,0.790,0.491,0.993,0.709,0.317,0.567,0.532,��,8.6,��
2023/11/24,13:20,0.523,0.791,0.491,0.995,0.709,0.317,0.567,0.533,��,9.2,��
2023/11/24,13:30,0.523,0.789,0.492,0.994,0.712,0.318,0.569,0.532,���k��,12.2,��
2023/11/24,13:40,0.521,0.792,0.491,0.993,0.710,0.318,0.567,0.531,��,7.6,��
2023/11/24,13:50,0.521,0.791,0.491,0.994,0.710,0.317,0.568,0.531,��,8.2,��
2023/11/24,14:00,0.522,0.793,0.492,0.991,0.711,0.317,0.566,0.532,��,10.6,��
2023/11/24,14:10,0.521,0.792,0.493,0.994,0.710,0.316,0.567,0.531,��,11.9,��
2023/11/24,14:20,0.522,0.791,0.491,0.994,0.710,0.316,0.568,0.530,��,9.6,��
2023/11/24,14:30,0.522,0.791,0.491,0.994,0.711,0.316,0.569,0.532,��,9.7,��
2023/11/24,14:40,0.521,0.793,0.493,0.994,0.710,0.316,0.568,0.530,��,6.2,��
2023/11/24,14:50,0.521,0.791,0.491,0.992,0.711,0.317,0.569,0.532,���k��,7.4,��
2023/11/24,15:00,0.522,0.791,0.491,0.995,0.709,0.317,0.568,0.531,��,6.9,��
2023/11/24,15:10,0.522,0.794,0.490,0.996,0.711,0.318,0.567,0.531,��,7.8,��
2023/11/24,15:20,0.522,0.794,0.492,0.996,0.712,0.319,0.567,0.532,��,7.7,��
2023/11/24,15:30,0.520,0.795,0.492,0.995,0.711,0.318,0.568,0.533,��,7.0,��
2023/11/24,15:40,0.520,0.795,0.494,0.993,0.709,0.318,0.569,0.533,��,9.5,��
2023/11/24,15:50,0.522,0.794,0.493,0.995,0.710,0.318,0.568,0.534,���k��,9.2,��
2023/11/24,16:00,0.520,0.795,0.493,0.995,0.709,0.317,0.567,0.533,���k��,10.5,��
2023/11/24,16:10,0.521,0.795,0.495,0.993,0.709,0.318,0.567,0.534,��,10.5,��
2023/11/24,16:20,0.522,0.795,0.494,0.995,0.711,0.317,0.568,0.532,���k��,9.9,��
2023/11/24,16:30,0.522,0.796,0.494,0.993,0.710,0.318,0.565,0.534,���k��,11.4,��
2023/11/24,16:40,0.525,0.795,0.494,0.994,0.712,0.317,0.567,0.533,���k��,10.2,��
2023/11/24,16:50,0.525,0.795,0.491,0.995,0.711,0.319,0.569,0.534,���k��,10.5,��
2023/11/24,17:00,0.524,0.797,0.494,0.995,0.712,0.318,0.568,0.535,���k��,11.9,��
2023/11/24,17:10,0.522,0.793,0.493,0.996,0.713,0.317,0.567,0.534,���k��,12.2,��
2023/11/24,17:20,0.523,0.795,0.493,0.996,0.713,0.319,0.567,0.533,���k��,10.3,��
2023/11/24,17:30,0.524,0.793,0.492,0.996,0.714,0.319,0.565,0.533,���k��,9.0,��
2023/11/24,17:40,0.524,0.796,0.492,0.994,0.712,0.318,0.568,0.533,���k��,9.1,��
2023/11/24,17:50,0.523,0.794,0.493,0.996,0.715,0.316,0.567,0.535,���k��,9.2,��
2023/11/24,18:00,0.525,0.796,0.491,0.997,0.714,0.319,0.567,0.534,���k��,9.0,��
2023/11/24,18:10,0.524,0.796,0.493,0.998,0.713,0.319,0.566,0.533,���k��,9.0,��
2023/11/24,18:20,0.523,0.796,0.492,0.995,0.713,0.318,0.568,0.533,���k��,9.9,��
2023/11/24,18:30,0.524,0.794,0.492,0.997,0.713,0.318,0.566,0.533,���k��,9.9,��
2023/11/24,18:40,0.524,0.797,0.492,0.996,0.713,0.319,0.567,0.533,���k��,8.7,��
2023/11/24,18:50,0.523,0.798,0.493,0.996,0.713,0.318,0.567,0.532,���k��,11.0,��
2023/11/24,19:00,0.523,0.794,0.491,0.997,0.713,0.317,0.564,0.534,���k��,9.9,��
2023/11/24,19:10,0.524,0.794,0.492,0.994,0.714,0.318,0.566,0.534,���k��,11.3,��
2023/11/24,19:20,0.523,0.797,0.493,0.996,0.714,0.317,0.567,0.532,���k��,10.8,��
2023/11/24,19:30,0.522,0.795,0.494,0.995,0.712,0.317,0.566,0.534,���k��,9.7,��
2023/11/24,19:40,0.524,0.795,0.492,0.996,0.716,0.317,0.566,0.534,���k��,8.4,��
2023/11/24,19:50,0.522,0.797,0.492,0.996,0.713,0.318,0.566,0.534,���k��,8.7,��
2023/11/24,20:00,0.523,0.795,0.493,0.995,0.712,0.317,0.568,0.533,���k��,8.3,��
2023/11/24,20:10,0.524,0.795,0.491,0.997,0.714,0.318,0.568,0.533,���k��,10.8,��
2023/11/24,20:20,0.522,0.795,0.494,0.997,0.713,0.318,0.568,0.532,���k��,6.7,��
2023/11/24,20:30,0.522,0.796,0.491,0.996,0.714,0.318,0.566,0.534,���k��,10.2,��
2023/11/24,20:40,0.524,0.794,0.491,0.995,0.715,0.317,0.567,0.532,���k��,14.7,��
2023/11/24,20:50,0.523,0.797,0.493,0.997,0.713,0.316,0.568,0.531,���k��,14.9,��
2023/11/24,21:00,0.523,0.796,0.492,0.997,0.713,0.318,0.566,0.531,���k��,13.3,��
2023/11/24,21:10,0.523,0.795,0.492,0.996,0.713,0.317,0.566,0.532,���k��,15.8,��
2023/11/24,21:20,0.522,0.794,0.493,0.996,0.713,0.318,0.567,0.531,���k��,15.0,��
2023/11/24,21:30,0.525,0.794,0.492,0.995,0.714,0.316,0.567,0.531,���k��,15.5,��
2023/11/24,21:40,0.523,0.795,0.492,0.997,0.713,0.319,0.568,0.532,�k��,12.2,��
2023/11/24,21:50,0.523,0.794,0.492,0.998,0.713,0.316,0.567,0.532,���k��,11.6,��
2023/11/24,22:00,0.524,0.795,0.491,0.996,0.713,0.317,0.567,0.532,�k��,11.3,��
2023/11/24,22:10,0.524,0.796,0.492,0.997,0.712,0.317,0.568,0.533,���k��,13.0,��
2023/11/24,22:20,0.523,0.794,0.492,0.996,0.712,0.317,0.568,0.531,�k��,12.2,��
2023/11/24,22:30,0.523,0.795,0.492,0.995,0.715,0.317,0.569,0.533,���k��,9.6,�L
2023/11/24,22:40,0.524,0.795,0.491,0.997,0.713,0.316,0.568,0.532,���k��,9.8,��
2023/11/24,22:50,0.523,0.795,0.492,0.997,0.714,0.317,0.568,0.531,�k��,10.7,��
2023/11/24,23:00,0.522,0.795,0.491,0.995,0.714,0.317,0.569,0.532,�k��,10.2,��
2023/11/24,23:10,0.522,0.795,0.491,0.994,0.715,0.316,0.567,0.532,�k��,10.7,��
2023/11/24,23:20,0.523,0.796,0.490,0.995,0.712,0.315,0.567,0.531,�k��,9.7,��
2023/11/24,23:30,0.521,0.794,0.490,0.996,0.714,0.316,0.568,0.532,�k��,7.3,��
2023/11/24,23:40,0.522,0.796,0.491,0.996,0.715,0.317,0.568,0.530,�k��,7.8,��
2023/11/24,23:50,0.523,0.795,0.490,0.997,0.712,0.316,0.567,0.532,�k��,7.7,��
